Temperature
8 9 9 9 9 9 9 9 10 10 9 8 9 9 10 9 8 8 8 8 7 7 6 6 6 6 7 7 7 7 7 7 7 7 7 7 7 7 7 7 7 7 7 7
9 8 8 8 8 8 9 9 9 9 8 8 8 8 9 9 8 7 7 7 6 6 5 5 6 6 6 6 6 6 6 6 6 6 6 7 6 6 7 7 7 7 6 6
8 7 7 7 7 8 8 8 8 8 8 7 7 9 9 8 7 6 6 5 5 5 5 5 5 5 5 6 6 6 6 6 6 6 6 6 6 6 6 6 6 6 6 6
7 7 7 7 7 7 8 7 7 7 7 8 8 9 10 8 8 7 6 5 5 4 4 4 4 5 5 5 5 5 5 5 5 5 5 5 5 5 5 5 5 5 5 6
7 6 6 6 6 6 7 6 6 6 6 7 7 7 10 8 7 7 6 5 4 4 3 3 4 4 4 5 5 5 5 5 5 4 4 4 4 4 4 5 5 5 5 5
6 5 5 6 5 6 5 6 5 6 6 7 7 8 10 9 8 7 6 5 4 3 3 3 3 4 4 4 4 4 4 4 4 4 4 4 4 4 4 4 4 4 4 4
6 6 5 5 5 5 5 6 7 8 8 9 6 7 9 8 7 6 6 5 4 3 3 3 3 3 3 3 4 4 4 4 4 3 3 3 3 3 3 3 3 3 4 4
6 7 5 5 5 5 5 6 7 8 9 9 6 7 8 6 5 5 5 4 3 3 2 2 2 2 3 3 3 3 3 3 3 3 3 3 3 3 3 3 3 3 3 3
6 6 4 4 4 5 5 5 5 6 5 6 8 7 7 6 5 5 4 4 3 3 2 2 2 2 2 2 2 2 3 2 3 3 2 2 2 2 2 2 2 2 3 3
5 4 4 4 4 4 4 4 4 5 6 8 9 8 8 7 6 5 4 4 3 2 2 2 2 2 2 2 2 2 2 2 2 2 2 2 2 2 2 2 2 2 2 2
4 4 4 4 4 4 4 4 4 5 5 7 8 9 7 6 5 5 4 3 2 2 2 1 1 1 1 1 1 1 1 1 1 1 1 1 1 2 2 2 2 2 2 2
3 4 4 4 3 3 4 4 4 5 5 5 6 8 6 5 5 4 4 3 2 1 1 1 1 1 1 1 1 1 1 1 1 1 1 1 1 1 1 1 1 2 2 2
2 3 4 5 4 2 2 3 3 3 4 4 6 7 5 4 4 3 3 2 2 1 1 1 0 0 0 0 0 0 0 0 0 0 0 1 1 1 1 1 1 1 1 1
2 2 4 6 5 3 3 2 2 2 4 5 5 6 6 5 5 4 3 2 1 1 0 0 0 -0 -0 0 0 0 -0 -0 -0 -0 0 0 0 0 0 0 0 1 1 1
2 2 2 3 3 2 2 3 2 2 3 4 5 5 6 5 4 3 2 2 1 1 0 0 -0 -1 -0 -0 -0 -0 -0 -0 -0 -1 -0 -0 -0 -0 -0 -0 -0 0 0 0
0 1 1 2 2 2 2 2 3 2 3 3 4 4 5 4 3 2 2 1 1 0 -0 -0 -1 -1 -1 -0 -0 -1 -1 -1 -1 -1 -1 -1 -1 -1 -1 -1 -1 -1 -0 -0
0 -0 1 3 2 1 3 3 2 2 2 3 4 5 4 3 3 2 1 0 0 -0 -1 -1 -1 -1 -1 -1 -1 -1 -1 -1 -1 -1 -1 -1 -1 -1 -1 -1 -1 -1 -1 -1
-1 -0 0 2 1 3 5 3 3 2 2 2 3 3 3 2 1 1 0 0 -0 -0 -1 -1 -1 -1 -1 -1 -1 -1 -1 -1 -1 -1 -2 -2 -2 -2 -2 -2 -2 -2 -2 -1
-1 -1 1 1 2 4 4 2 2 1 2 2 2 2 2 0 0 1 0 -0 -0 -1 -1 -1 -1 -1 -1 -1 -1 -2 -2 -2 -2 -2 -2 -2 -2 -2 -2 -2 -2 -2 -2 -2
-2 -1 0 1 2 3 4 2 0 1 2 2 1 1 1 0 2 2 -0 -1 -1 -1 -1 -1 -1 -1 -1 -2 -2 -2 -2 -2 -2 -2 -2 -2 -2 -3 -3 -3 -3 -3 -2 -2
-1 -1 -0 1 2 3 3 0 0 2 3 2 1 0 -0 -0 0 -0 -1 -1 -1 -1 -1 -2 -2 -2 -2 -2 -2 -2 -2 -2 -2 -2 -2 -3 -3 -3 -3 -3 -3 -3 -3 -3
0 0 -0 0 1 3 1 -0 1 2 1 0 0 -0 -1 -1 -1 -1 -1 -2 -2 -2 -2 -2 -2 -2 -2 -2 -2 -3 -3 -3 -3 -3 -3 -3 -3 -3 -3 -3 -3 -3 -3 -3
0 1 2 1 3 2 0 1 1 0 0 -0 -0 -1 -1 -2 -2 -2 -2 -2 -2 -2 -2 -2 -2 -2 -2 -2 -3 -3 -3 -3 -3 -3 -3 -3 -3 -4 -4 -4 -4 -4 -4 -4
-0 -2 -1 -1 1 1 -0 -0 -0 -0 -0 -0 -1 -1 -1 -2 -2 -2 -2 -2 -2 -2 -2 -3 -3 -3 -3 -3 -3 -3 -3 -3 -3 -4 -4 -4 -4 -4 -4 -4 -4 -4 -4 -4
1 -2 -1 -1 1 0 -0 -0 -0 -0 -1 -1 -1 -1 -2 -2 -2 -2 -3 -3 -3 -3 -3 -3 -3 -3 -3 -3 -3 -3 -4 -4 -4 -4 -4 -4 -4 -4 -4 -4 -4 -4 -4 -5
-0 -1 -0 2 2 0 1 0 -0 -1 -1 -1 -2 -2 -2 -2 -2 -3 -3 -3 -3 -3 -3 -3 -3 -3 -3 -3 -4 -4 -4 -4 -4 -4 -4 -4 -5 -5 -4 -4 -4 -4 -4 -4
Wind_Speed
1 2 2 4 5 4 4 6 8 6 3 5 9 12 10 7 6 6 6 5 4 4 2 1 1 1 1 1 1 1 2 2 2 1 1 2 2 2 2 3 3 3 3 3
2 2 2 2 2 3 5 6 7 5 3 5 8 12 10 7 6 5 5 4 4 3 2 1 1 1 1 1 1 2 2 2 2 2 2 2 3 3 3 3 3 3 3 3
3 0 1 2 2 3 5 7 6 5 5 5 7 9 8 4 4 3 3 3 2 3 3 2 2 2 2 2 2 2 3 3 3 3 2 2 2 2 3 3 3 4 4 4
1 1 2 2 3 4 5 4 5 5 5 4 3 6 6 5 4 3 2 2 2 2 2 3 3 3 2 3 3 3 3 3 3 2 3 3 3 3 4 4 4 4 4 4
1 1 2 3 3 4 3 2 4 5 5 5 5 6 5 3 5 5 3 2 2 2 2 3 3 3 3 2 3 3 2 3 3 3 3 4 4 4 4 4 4 5 4 4
1 1 1 2 2 2 1 1 2 3 4 5 6 7 5 3 5 4 3 2 2 2 2 2 3 2 2 3 2 2 2 3 3 3 4 4 4 4 5 5 4 4 4 4
1 2 0 0 0 2 1 1 2 3 4 4 2 5 5 2 3 4 3 2 2 2 2 2 3 3 3 3 3 3 3 3 3 4 4 4 5 5 6 6 5 5 4 4
3 2 1 0 1 2 3 2 2 3 3 2 3 6 2 1 1 2 2 2 2 2 2 2 3 3 3 3 3 3 4 4 4 4 4 5 5 4 5 6 6 6 5 5
2 2 1 1 0 1 2 3 1 1 1 4 4 4 4 1 1 1 1 1 2 2 3 3 3 4 3 3 4 4 4 4 4 4 5 5 5 5 6 6 6 6 5 5
1 3 1 0 1 1 1 2 2 2 3 4 4 4 3 2 1 1 2 2 3 3 3 4 4 4 3 3 4 4 4 4 5 5 5 4 5 5 6 5 6 6 6 5
1 2 1 1 3 3 2 2 2 2 2 3 4 3 0 2 2 2 3 3 3 4 4 4 4 4 3 3 3 3 4 4 5 5 5 5 5 5 5 5 6 5 5 5
1 2 3 3 0 2 3 4 4 3 3 3 4 4 2 1 1 2 2 3 3 4 4 4 5 4 3 3 4 4 4 4 5 5 5 5 5 5 5 5 5 5 5 5
2 2 2 2 2 2 3 3 4 3 2 4 5 5 2 1 2 2 3 4 4 4 4 4 5 5 4 4 4 4 4 5 5 5 5 5 5 5 5 5 5 5 5 5
2 3 5 6 2 2 4 5 6 6 5 7 11 12 8 6 7 6 6 6 6 5 4 4 5 5 5 5 4 5 5 5 5 5 5 5 5 5 5 5 4 5 5 5
2 4 5 9 8 5 7 9 10 11 12 10 12 13 14 11 9 8 7 7 6 6 5 5 5 5 5 5 5 5 5 5 5 5 4 4 4 4 4 4 5 5 5 5
1 3 4 6 6 8 10 13 13 14 14 16 18 18 13 10 8 7 7 6 6 6 6 5 5 5 5 5 6 6 5 5 5 4 4 4 4 4 4 4 5 5 5 5
3 2 3 5 4 6 10 11 13 11 12 11 14 13 9 9 9 8 7 6 6 6 6 5 5 5 5 5 5 5 6 5 5 4 4 3 3 4 4 4 4 5 5 5
4 4 3 4 3 8 5 1 7 11 12 12 12 12 10 9 9 7 7 6 6 6 6 6 5 5 5 5 5 5 5 4 4 4 3 3 3 3 4 4 4 4 4 4
5 5 3 3 5 9 6 3 4 6 8 8 10 10 8 6 6 6 4 5 6 6 6 5 5 5 5 5 4 4 4 4 4 4 3 3 3 3 4 4 4 4 4 4
3 4 4 4 5 7 3 1 2 3 6 4 6 7 6 3 5 5 2 4 5 5 4 4 4 4 4 4 3 3 4 4 4 4 3 3 3 3 3 4 4 4 4 4
5 5 7 8 8 8 4 3 5 4 4 1 4 5 5 5 6 5 5 5 5 4 4 3 3 3 3 3 3 3 4 4 4 4 3 3 3 3 3 3 3 4 4 4
8 6 7 7 7 8 5 6 6 5 2 2 4 5 6 7 7 6 6 6 5 4 4 3 3 3 3 3 3 3 4 4 4 3 3 3 3 3 3 3 3 3 3 3
9 8 5 9 8 3 7 7 6 3 4 4 5 5 6 6 7 7 6 6 5 4 3 3 3 3 3 3 3 4 4 4 3 2 2 3 3 3 3 3 3 3 3 3
7 5 6 8 10 9 8 9 7 6 7 6 5 5 6 6 7 7 6 5 4 4 3 3 3 3 3 3 3 4 4 3 2 2 3 2 2 2 3 2 2 2 2 3
7 7 7 10 10 8 8 9 8 7 6 6 6 6 7 7 7 6 5 5 4 3 3 3 3 3 4 4 4 3 3 2 2 2 2 2 2 2 2 2 3 3 3 3
8 9 9 9 7 6 7 5 6 7 8 7 6 7 6 6 6 6 5 4 4 3 3 3 3 3 4 4 4 3 2 2 2 2 2 2 2 2 1 2 3 3 3 5
Wind_Direction
80 158 206 231 235 257 249 246 255 259 261 260 254 262 264 257 252 256 255 255 256 256 271 304 346 341 308 297 305 308 311 296 285 272 270 269 270 275 274 273 272 275 277 273
154 214 253 254 227 235 238 248 259 266 264 264 269 269 263 251 245 252 264 266 262 260 270 293 319 333 314 311 306 299 297 304 292 273 266 267 270 271 271 277 269 266 270 273
194 178 187 187 194 226 244 247 260 272 287 250 277 266 235 227 227 248 271 276 273 268 272 278 292 304 311 307 301 294 291 290 296 299 280 270 257 267 268 279 280 270 266 268
193 243 212 210 235 244 252 249 262 264 263 250 251 274 235 219 219 237 267 281 284 289 296 296 289 294 295 297 296 290 291 293 294 291 275 260 259 268 271 276 276 280 271 267
211 198 213 231 262 249 255 279 250 243 241 257 231 249 256 199 239 246 254 280 300 304 298 301 300 296 300 305 303 301 297 297 296 286 271 267 267 273 276 274 275 280 278 269
254 229 260 266 300 233 172 163 178 201 224 245 231 230 261 214 238 243 242 265 290 300 308 314 315 311 317 324 316 311 302 301 301 288 277 272 275 279 277 276 277 279 280 276
250 204 179 240 176 148 194 210 234 218 222 242 170 229 257 280 245 228 237 253 277 294 316 329 326 321 326 326 320 307 300 298 298 290 284 279 279 280 276 275 274 275 274 273
269 251 192 218 232 217 210 236 246 261 259 272 201 238 263 6 262 240 235 244 281 310 328 329 322 313 314 318 316 308 300 298 296 292 291 287 285 280 279 275 273 270 269 268
256 270 52 19 331 213 184 212 294 278 301 271 248 258 277 253 262 228 227 271 295 312 324 323 316 312 313 318 315 307 300 299 301 298 294 287 285 282 280 278 276 273 273 274
265 264 261 295 177 80 318 161 177 214 260 265 265 257 256 233 254 246 252 276 303 307 311 320 318 314 308 310 310 306 299 296 298 298 294 289 285 281 281 280 279 280 279 275
239 238 257 200 209 212 162 179 214 220 265 267 275 268 70 232 230 251 259 276 298 303 308 315 317 317 307 311 312 306 300 299 300 297 291 287 285 284 284 282 283 283 280 277
220 240 256 239 176 303 237 222 201 228 231 238 266 275 71 222 279 289 283 288 295 301 309 314 318 320 322 313 312 310 303 301 302 300 293 289 288 287 286 288 289 290 287 285
173 203 254 216 192 195 229 226 219 228 232 231 244 261 95 345 325 319 300 296 300 302 311 319 322 325 328 327 316 307 305 306 307 303 297 294 293 293 293 296 298 295 290 288
187 217 235 253 288 202 232 223 210 210 232 246 245 264 280 296 305 303 295 289 295 299 301 309 317 321 325 328 323 318 317 314 309 305 302 302 305 304 300 301 302 299 294 290
206 238 243 260 269 257 250 243 224 222 233 247 264 269 278 290 291 289 289 288 289 295 296 299 307 313 319 323 324 322 319 319 316 311 307 305 307 306 306 309 308 305 301 298
203 240 252 259 255 254 262 255 242 239 243 250 265 273 281 289 287 283 284 284 283 290 293 296 304 309 312 314 316 318 317 315 312 308 306 309 311 313 313 312 311 310 308 307
200 204 246 260 277 276 261 246 231 231 231 238 252 265 286 288 286 285 286 282 276 284 290 294 297 298 303 305 307 308 311 314 311 309 311 314 316 317 315 314 314 311 310 313
193 197 229 271 275 248 263 222 223 233 246 241 256 273 281 287 293 286 278 275 281 286 289 292 294 296 299 301 304 305 307 309 308 307 310 313 315 313 314 314 314 313 313 315
209 199 215 236 257 271 273 241 210 228 260 245 252 269 279 295 294 275 266 267 277 283 286 289 288 287 292 298 304 305 305 306 302 302 306 310 310 309 313 315 315 315 315 315
187 201 216 224 246 256 266 150 167 203 262 237 234 252 270 279 276 292 314 291 290 293 290 293 294 291 291 299 304 300 303 306 302 303 303 303 301 299 302 305 309 312 312 312
185 200 217 229 243 262 260 160 161 218 278 255 225 243 249 247 259 294 300 296 294 291 291 294 291 286 289 297 293 289 296 301 304 307 306 305 300 299 299 303 306 312 315 316
193 197 206 210 230 250 167 158 202 253 317 246 247 249 250 257 271 278 283 286 288 290 292 291 291 291 297 298 286 285 293 302 306 305 304 305 307 307 305 306 309 314 314 314
212 211 211 210 231 269 187 214 241 261 255 257 259 262 255 260 268 272 275 274 272 273 280 283 279 287 298 299 283 279 293 301 301 302 303 306 309 310 310 309 311 317 316 310
224 214 226 247 255 255 246 246 250 250 254 259 260 259 248 253 265 267 268 266 267 268 270 274 277 285 296 300 292 283 290 286 286 295 304 308 310 316 321 318 317 317 316 312
222 190 221 248 262 274 254 239 248 250 251 255 256 253 252 254 260 261 262 261 264 267 265 262 267 276 289 298 296 295 291 277 279 291 300 307 307 310 321 328 329 318 315 310
214 207 213 240 238 232 255 255 243 241 245 247 252 259 258 252 254 256 255 258 259 261 262 267 273 281 292 298 296 298 287 265 261 282 299 301 299 308 322 333 344 354 336 341
Height
1492 1492 1491 1491 1492 1490 1489 1488 1486 1486 1491 1491 1486 1484 1483 1484 1485 1485 1484 1484 1484 1483 1483 1483 1482 1482 1482 1482 1482 1482 1482 1482 1482 1482 1482 1482 1481 1481 1481 1481 1481 1480 1480 1480
1491 1491 1493 1494 1494 1492 1491 1489 1486 1488 1491 1491 1486 1483 1480 1481 1482 1482 1482 1481 1481 1481 1481 1480 1480 1479 1479 1479 1479 1479 1479 1479 1479 1478 1478 1478 1478 1478 1477 1477 1477 1476 1476 1475
1489 1494 1495 1494 1493 1492 1490 1489 1488 1489 1490 1490 1488 1476 1475 1478 1480 1481 1481 1480 1479 1479 1478 1477 1477 1476 1476 1476 1476 1476 1475 1475 1475 1474 1474 1474 1474 1474 1473 1473 1472 1472 1472 1471
1492 1494 1494 1493 1492 1492 1488 1491 1492 1492 1490 1482 1486 1473 1467 1473 1476 1478 1478 1478 1477 1477 1476 1475 1474 1473 1473 1473 1473 1473 1472 1472 1472 1471 1471 1470 1470 1470 1469 1469 1468 1468 1468 1467
1492 1495 1494 1492 1493 1493 1490 1493 1493 1492 1490 1487 1483 1482 1463 1471 1472 1473 1475 1475 1475 1475 1474 1473 1471 1471 1470 1470 1469 1469 1469 1469 1469 1468 1468 1467 1466 1466 1466 1465 1465 1464 1464 1463
1494 1496 1495 1494 1494 1494 1494 1493 1492 1491 1488 1482 1478 1477 1461 1465 1468 1469 1472 1473 1473 1473 1472 1470 1469 1469 1468 1467 1466 1466 1466 1465 1465 1465 1464 1464 1463 1463 1462 1462 1461 1460 1460 1459
1492 1494 1495 1495 1493 1493 1493 1489 1483 1479 1477 1469 1480 1478 1464 1465 1468 1469 1471 1472 1472 1471 1470 1468 1467 1466 1465 1464 1464 1463 1463 1462 1462 1462 1461 1461 1460 1459 1458 1458 1457 1457 1456 1455
1488 1487 1493 1494 1493 1492 1492 1490 1483 1475 1467 1465 1480 1472 1463 1469 1470 1470 1471 1472 1471 1470 1469 1467 1466 1464 1463 1462 1462 1461 1460 1460 1459 1458 1458 1457 1456 1456 1455 1454 1454 1453 1452 1451
1488 1488 1495 1495 1495 1494 1491 1490 1492 1488 1489 1481 1465 1466 1466 1468 1469 1470 1470 1470 1470 1468 1467 1466 1464 1463 1461 1460 1460 1459 1458 1457 1456 1456 1455 1454 1453 1452 1452 1451 1450 1449 1448 1447
1494 1493 1493 1495 1495 1495 1494 1492 1492 1487 1479 1467 1460 1462 1459 1463 1466 1468 1468 1468 1468 1467 1465 1464 1462 1461 1459 1458 1457 1456 1455 1454 1454 1453 1452 1451 1450 1449 1448 1447 1446 1445 1444 1443
1496 1495 1493 1493 1492 1490 1494 1494 1491 1487 1484 1473 1462 1457 1461 1463 1465 1466 1467 1467 1467 1466 1464 1462 1461 1459 1457 1456 1455 1454 1453 1452 1451 1449 1448 1447 1446 1445 1444 1443 1442 1441 1440 1438
1496 1494 1489 1489 1493 1494 1492 1490 1489 1485 1484 1483 1473 1463 1464 1465 1465 1466 1466 1466 1465 1464 1463 1461 1459 1457 1456 1454 1453 1452 1450 1449 1448 1446 1445 1444 1443 1441 1440 1439 1438 1437 1435 1435
1496 1496 1487 1483 1492 1495 1493 1491 1491 1491 1487 1481 1472 1462 1465 1465 1465 1465 1465 1465 1464 1462 1461 1459 1457 1455 1454 1452 1451 1449 1448 1446 1445 1443 1442 1441 1439 1438 1437 1435 1434 1433 1432 1431
1495 1494 1489 1478 1477 1486 1488 1489 1490 1489 1482 1475 1469 1460 1460 1462 1463 1464 1464 1463 1462 1460 1459 1457 1455 1453 1452 1450 1448 1447 1445 1443 1442 1440 1439 1437 1436 1435 1434 1432 1431 1430 1428 1427
1494 1491 1491 1487 1485 1487 1485 1484 1485 1485 1478 1473 1462 1461 1458 1460 1462 1462 1461 1460 1459 1458 1457 1455 1453 1451 1449 1448 1446 1445 1443 1441 1439 1437 1436 1434 1433 1432 1430 1429 1428 1426 1425 1423
1494 1492 1491 1487 1485 1486 1483 1478 1478 1478 1475 1471 1466 1460 1457 1459 1460 1459 1459 1458 1456 1455 1454 1452 1451 1449 1447 1445 1444 1442 1440 1439 1437 1435 1433 1432 1430 1429 1427 1426 1424 1423 1421 1420
1492 1493 1488 1478 1483 1483 1471 1467 1469 1469 1467 1466 1460 1455 1456 1457 1457 1456 1456 1455 1454 1452 1451 1450 1448 1446 1445 1443 1441 1439 1438 1436 1434 1432 1430 1429 1427 1426 1424 1423 1421 1420 1418 1417
1492 1491 1489 1483 1483 1473 1458 1463 1463 1463 1461 1461 1458 1455 1455 1455 1454 1454 1453 1452 1451 1450 1448 1447 1445 1443 1442 1440 1439 1437 1435 1434 1432 1430 1428 1427 1425 1423 1422 1420 1419 1417 1416 1414
1489 1489 1486 1483 1474 1460 1457 1460 1462 1462 1456 1455 1455 1454 1454 1454 1452 1450 1450 1449 1448 1447 1446 1444 1442 1441 1439 1438 1436 1434 1433 1431 1429 1428 1426 1424 1423 1421 1419 1418 1416 1415 1414 1412
1488 1488 1485 1481 1472 1460 1451 1458 1459 1461 1454 1451 1452 1451 1452 1452 1450 1447 1447 1446 1445 1444 1443 1441 1439 1438 1436 1435 1434 1432 1430 1429 1427 1425 1423 1422 1420 1418 1417 1416 1414 1413 1411 1410
1484 1483 1481 1476 1469 1455 1453 1457 1460 1457 1447 1449 1449 1449 1449 1449 1448 1447 1445 1443 1443 1441 1440 1438 1437 1435 1434 1433 1431 1430 1428 1426 1425 1423 1421 1420 1418 1417 1415 1414 1412 1410 1409 1407
1469 1470 1473 1471 1467 1454 1452 1455 1454 1448 1447 1446 1446 1446 1446 1445 1444 1443 1442 1441 1440 1438 1437 1435 1434 1432 1431 1430 1429 1427 1426 1424 1423 1421 1419 1417 1416 1415 1413 1412 1410 1409 1407 1405
1462 1459 1456 1456 1449 1445 1446 1446 1445 1445 1445 1444 1444 1443 1443 1442 1441 1440 1439 1437 1436 1435 1434 1432 1431 1430 1429 1428 1426 1425 1423 1422 1420 1418 1417 1415 1414 1412 1411 1410 1408 1407 1405 1404
1456 1457 1456 1453 1444 1443 1443 1442 1442 1442 1441 1441 1441 1440 1439 1438 1437 1436 1435 1434 1433 1432 1431 1429 1428 1427 1426 1425 1424 1422 1421 1419 1418 1416 1415 1413 1411 1410 1409 1408 1406 1405 1403 1402
1446 1451 1450 1446 1440 1439 1437 1437 1437 1437 1437 1437 1437 1436 1435 1434 1433 1432 1431 1430 1429 1428 1428 1427 1426 1424 1423 1422 1421 1420 1418 1417 1415 1414 1413 1411 1410 1408 1407 1406 1405 1403 1402 1401
1439 1441 1440 1434 1432 1434 1432 1432 1433 1433 1433 1433 1432 1432 1431 1431 1430 1429 1428 1427 1427 1426 1425 1424 1423 1422 1421 1419 1418 1417 1416 1415 1413 1412 1411 1410 1408 1407 1406 1404 1403 1402 1401 1400